Simultaneous Nadir Overpasses (SNOs) Predictions

Prediction of SNOs between AQUA and METOP-B Satellite Orbit:

Table of predicted SNOs for the next 14.0 days since TLE Epoch: 1/20/2024
Index Date (AQUA) Time (AQUA) Lat,Lon (AQUA) SZA (AQUA ) Date (METOP-B) Time (METOP-B) Lat,Lon (METOP-B) SZA (METOP-B ) Distance(km) Time Diff (sec)
1 01/21/2024 16:41:22 -75.25, 106.34 84.86 01/21/2024 16:40:59 -75.27, 106.42 84.83 3.11 23
2 01/21/2024 17:30:47 75.29, -86.13 95.19 01/21/2024 17:31:38 75.31, -86.12 95.20 2.66 51
3 01/24/2024 08:53:25 -75.24,-136.62 85.48 01/24/2024 08:52:45 -75.22,-136.67 85.49 2.95 40
4 01/24/2024 09:42:50 75.29, 30.91 94.57 01/24/2024 09:43:23 75.31, 30.92 94.59 2.34 33
5 01/27/2024 01:05:25 -75.22, -19.52 86.15 01/27/2024 01:04:29 -75.21, -19.66 86.15 3.96 56
6 01/27/2024 01:54:50 75.27, 147.99 93.89 01/27/2024 01:55:07 75.29, 147.93 93.92 3.22 17
7 01/29/2024 17:17:25 -75.23, 97.49 86.84 01/29/2024 17:16:13 -75.23, 97.47 86.83 0.54 72
8 01/29/2024 18:06:50 75.28, -95.01 93.21 01/29/2024 18:06:52 75.27, -95.10 93.20 3.18 2
9 01/29/2024 18:56:17 -75.52, 71.97 86.55 01/29/2024 18:57:28 -75.55, 73.09 86.55 31.06 71
10 02/01/2024 09:29:15 -74.83,-144.38 88.01 02/01/2024 09:28:08 -74.72,-146.92 88.03 75.24 67
11 02/01/2024 10:18:48 75.28, 22.05 92.47 02/01/2024 10:18:36 75.28, 21.98 92.48 1.78 12



Historial Predications of SNOs between AQUA and METOP-B
